GFSGL_250_spd_003.txt.gz
Wind_Speed
10 6 4 2 4 9 7 5 10 11 16 19 25 39 52 52 53 53 50 51 51 50 49 47 44 43 42 41 42 44 46 50 50 52 54 53 54 57 59 60 62 62 65
4 5 3 4 3 3 6 4 7 9 9 14 22 31 42 48 50 53 53 50 52 51 50 46 49 49 49 49 47 49 52 53 53 55 56 57 61 63 66 68 71 71 75
10 8 4 3 6 7 5 10 10 10 12 14 16 23 29 34 37 39 42 45 47 49 48 48 53 55 56 55 54 57 58 57 57 61 65 68 71 73 74 75 78 81 80
8 10 9 4 5 2 2 7 10 14 15 16 19 24 26 29 33 37 37 38 42 46 50 53 56 59 60 62 63 65 66 67 66 67 70 75 76 77 79 80 80 77 79
13 10 6 5 4 1 2 5 8 12 14 18 22 26 31 34 37 37 40 43 44 49 52 55 58 60 63 64 64 65 69 69 72 75 76 76 80 78 77 78 77 73 66
22 20 16 16 10 9 7 7 13 17 19 22 25 27 29 34 39 43 45 47 49 52 54 58 61 63 65 66 68 69 71 73 77 77 79 79 79 78 74 71 71 71 70
25 25 22 24 21 18 18 17 15 19 20 22 23 29 37 40 41 44 48 50 53 57 59 62 65 67 70 72 73 75 76 76 76 78 78 77 74 72 74 72 76 74 66
23 24 24 27 26 29 28 23 24 21 26 24 28 27 32 34 36 40 43 47 52 58 63 64 67 70 71 73 72 73 73 74 75 74 75 78 77 76 75 74 73 73 71
22 22 26 29 32 33 36 35 29 29 31 30 32 33 36 36 38 38 41 48 53 54 61 65 67 70 73 73 73 73 74 75 73 73 76 78 74 73 73 72 75 79 78
25 27 29 30 33 34 33 34 36 34 33 38 39 38 41 43 48 51 46 52 50 53 61 66 69 74 76 76 75 76 79 75 76 79 75 72 74 75 80 85 85 85 88
36 36 34 35 35 37 39 39 39 43 48 48 47 48 52 50 49 51 51 51 53 55 56 58 66 70 73 73 75 76 75 77 76 75 77 78 81 85 90 94 96 97 95
34 34 37 40 43 45 47 49 49 51 51 50 51 51 53 53 52 53 52 55 56 61 61 60 58 67 73 73 73 75 77 78 82 83 83 87 92 93 96 99 96 95 99
41 44 47 49 52 53 52 53 50 51 51 51 51 52 54 54 55 51 56 61 62 63 66 62 60 64 69 72 78 80 80 83 87 90 93 96 99 102 99 100 99 100 103
39 41 45 48 50 50 50 52 53 52 52 52 52 51 50 50 51 51 53 56 63 69 70 73 74 73 73 76 80 83 86 90 94 96 95 96 99 100 103 99 105 107 109
47 49 51 52 54 53 54 53 55 56 55 53 50 48 49 50 53 58 58 60 65 68 68 68 72 77 82 85 90 91 93 95 96 95 97 100 102 105 108 110 111 110 106
53 55 56 57 59 58 56 53 52 54 54 54 54 54 56 57 60 64 69 74 77 77 80 81 81 86 89 89 91 95 99 105 108 112 114 118 121 121 120 115 108 104 106
59 59 61 62 61 59 57 52 51 54 56 58 59 60 62 64 68 70 75 81 86 91 94 97 98 99 99 102 105 109 111 113 111 109 107 107 109 110 108 106 105 109 112
63 64 64 62 60 58 58 55 53 54 55 57 58 61 63 65 65 67 71 75 79 81 83 86 90 93 96 98 100 103 105 106 107 108 110 110 112 114 115 115 117 117 119
65 66 64 61 60 60 59 56 55 57 57 58 58 62 64 62 61 62 63 66 69 74 80 83 88 90 93 97 100 104 107 110 113 114 114 115 115 117 118 119 121 123 123
67 67 63 64 63 62 59 57 58 59 59 60 62 65 64 62 63 64 67 69 73 76 80 84 87 92 96 99 102 105 107 110 112 115 117 118 119 121 122 122 122 123 122
68 64 64 64 63 62 60 60 60 61 63 64 65 65 65 66 68 70 73 78 82 86 89 92 94 98 102 105 109 111 111 111 110 109 109 109 108 108 107 106 105 104 101
65 64 62 63 63 61 62 61 63 65 66 67 66 68 70 73 75 78 82 86 88 90 94 98 102 106 109 109 104 101 97 94 90 87 86 85 84 85 85 85 84 83 82
64 63 63 61 60 62 63 64 66 69 69 71 74 76 78 81 84 87 89 92 96 99 103 106 105 95 89 86 81 78 76 74 73 71 70 69 70 70 71 71 70 68 66
62 60 60 61 63 64 66 67 68 69 72 76 79 81 84 87 89 92 96 99 103 105 97 88 83 77 73 69 66 65 64 64 63 61 60 60 60 59 60 59 58 57 57
60 61 62 63 65 66 67 69 72 75 78 81 84 87 88 90 94 99 104 104 94 87 79 74 70 65 64 63 62 60 58 55 53 52 50 50 51 50 50 49 49 48 47
61 62 64 66 66 68 71 75 79 82 84 86 87 89 93 98 103 102 93 87 81 75 68 64 63 61 60 57 54 50 48 46 44 42 41 41 41 42 42 42 42 42 42

GFSGL_250_spd_006.txt.gz
Wind_Speed
9 9 7 9 4 1 5 5 2 3 6 12 20 25 36 45 54 51 47 48 44 45 43 43 46 48 47 46 44 47 45 40 39 42 47 49 49 53 55 55 56 56 62
7 5 5 7 2 5 3 5 5 2 2 7 15 23 33 41 46 47 46 47 45 44 45 48 50 50 51 53 53 52 49 48 47 49 52 51 52 54 56 57 64 68 71
9 10 12 7 2 4 7 5 2 3 5 8 9 14 29 38 42 47 48 51 51 50 48 51 52 52 53 54 56 52 55 53 55 58 58 60 60 61 63 69 72 75 77
11 9 7 15 9 2 3 6 6 9 9 9 12 14 18 30 43 49 48 48 50 51 54 57 51 50 52 54 56 56 58 58 62 63 65 69 71 72 75 76 76 77 78
16 12 8 5 4 2 2 9 12 12 11 11 13 15 18 23 29 38 43 46 47 46 47 48 47 46 48 53 58 60 62 64 65 68 72 75 78 79 77 76 78 83 81
26 24 20 16 13 9 10 9 9 9 13 18 17 18 19 25 29 32 38 42 43 42 42 46 48 50 54 56 60 63 65 67 68 71 74 76 75 77 81 82 81 77 76
30 30 29 27 23 21 20 18 19 18 20 21 23 27 29 30 31 34 37 42 45 47 50 54 57 60 61 63 65 66 68 72 74 75 76 78 80 81 79 78 77 80 80
27 31 32 29 27 30 29 28 27 28 24 25 25 27 31 34 38 40 43 44 46 49 54 57 60 63 66 68 69 71 73 75 76 78 78 78 79 82 82 83 84 82 82
21 27 28 28 23 28 30 31 33 33 35 29 30 35 34 34 38 40 44 47 50 53 55 58 62 66 69 72 75 78 79 80 81 84 88 90 88 83 84 81 79 77 78
25 24 24 26 26 30 31 32 32 34 36 37 36 38 42 44 43 44 49 51 53 56 58 61 63 67 72 75 78 80 80 83 84 86 86 87 82 82 81 82 83 84 82
25 28 30 31 35 40 38 40 40 42 40 42 45 48 47 48 52 54 55 57 59 61 63 65 68 70 74 76 79 81 84 88 81 83 85 82 82 84 85 87 90 88 93
32 33 34 38 39 40 42 44 48 51 53 55 59 58 57 58 59 61 63 64 63 63 64 66 68 71 71 72 74 74 78 80 82 79 79 77 80 84 86 90 95 94 92
19 22 26 29 30 31 32 35 38 42 47 54 61 64 66 68 70 68 66 65 66 67 69 71 72 70 73 73 74 74 76 83 82 78 82 84 85 88 92 92 96 100 101
31 35 35 38 40 41 43 46 47 50 51 53 54 53 55 58 59 60 63 63 63 65 65 65 67 70 75 76 78 78 79 79 81 86 86 87 89 92 92 97 98 98 99
39 42 44 46 48 51 53 54 56 58 58 60 59 56 54 54 55 55 57 60 62 63 65 67 69 72 74 75 77 79 82 85 87 89 89 93 95 97 96 97 99 106 112
47 49 52 54 56 58 57 58 61 62 61 62 59 57 57 57 56 56 58 61 63 65 68 71 74 79 83 87 89 90 92 94 96 100 102 104 107 107 112 115 120 124 125
56 58 59 59 60 62 62 63 65 66 64 62 61 60 59 57 57 58 60 61 63 66 69 74 78 81 86 93 98 103 106 110 114 118 121 123 123 125 126 126 124 122 120
63 64 64 65 65 65 65 66 67 68 64 63 61 62 60 58 59 61 62 64 66 69 73 75 74 76 77 80 83 86 90 93 97 103 108 112 114 115 116 117 117 118 119
67 67 66 67 67 68 69 70 71 68 66 63 64 64 63 63 64 65 66 68 71 74 76 76 78 79 81 82 84 87 89 93 96 99 100 103 105 106 107 108 110 112 114
70 71 73 74 72 71 72 71 70 67 65 66 66 66 62 64 66 68 70 73 75 75 77 80 82 87 89 91 93 94 96 98 102 105 106 107 108 110 111 113 113 112 112
75 75 76 73 70 71 71 71 69 67 67 66 64 63 65 67 70 73 74 76 79 82 86 90 92 91 92 95 99 102 103 105 106 103 99 94 91 90 88 86 85 85 85
74 74 73 73 73 72 71 71 68 68 67 65 65 67 69 71 73 75 78 82 86 90 94 94 94 95 97 101 102 100 92 86 85 81 78 76 74 73 72 70 70 70 70
71 68 70 73 70 69 70 69 68 66 65 66 68 71 73 76 79 82 86 89 92 92 92 93 97 100 95 85 80 77 74 71 69 68 66 64 63 62 61 60 60 60 60
66 66 66 67 68 68 67 65 66 66 68 70 73 76 79 83 86 90 93 93 92 93 96 100 94 82 76 71 68 66 65 64 61 59 57 54 53 51 50 49 48 48 48
64 65 64 63 64 64 65 66 67 70 73 76 79 82 86 89 92 93 92 92 95 99 97 85 78 72 68 65 62 61 59 56 53 51 50 48 45 43 41 39 38 38 38
59 59 59 62 64 66 67 69 72 75 78 82 85 88 91 92 92 92 94 98 99 89 81 74 69 65 62 60 58 54 51 49 46 45 43 40 39 36 33 31 31 31 32

GFSGL_250_spd_009.txt.gz
Wind_Speed
14 9 13 13 15 11 10 9 5 3 1 5 14 17 29 46 52 52 51 49 44 43 42 45 46 48 50 50 47 44 43 45 49 48 47 45 44 44 47 49 51 53 55
15 12 12 9 13 12 9 5 4 5 1 4 12 15 23 39 46 49 51 48 48 46 45 44 46 46 46 48 51 49 48 47 54 53 55 54 52 53 56 57 58 61 63
19 12 15 15 11 10 7 7 4 4 3 3 7 15 20 30 38 43 46 47 51 50 48 45 45 47 49 50 50 52 52 55 59 60 60 57 58 59 61 63 63 65 66
16 16 14 15 17 9 6 9 7 7 7 5 5 6 16 28 36 37 44 46 44 47 50 51 51 51 52 52 51 49 56 60 60 62 64 60 62 64 67 68 67 67 70
16 17 14 10 9 5 4 5 8 13 13 10 9 8 8 11 36 41 41 47 50 48 50 52 54 54 55 57 58 54 55 58 60 61 64 65 68 70 72 74 74 75 77
24 22 23 18 13 11 11 11 12 10 9 8 14 17 13 15 17 33 47 47 51 52 53 54 56 58 61 64 66 67 63 60 60 63 66 69 70 73 75 76 78 79 82
29 26 30 29 26 24 22 22 21 19 19 18 19 19 23 25 25 27 31 35 47 56 57 59 61 63 63 64 65 64 65 66 68 69 69 70 73 76 78 80 82 85 88
25 25 28 33 30 30 28 28 27 27 26 28 26 24 26 24 27 34 37 40 42 45 49 52 54 57 59 60 62 65 67 70 72 73 74 75 77 81 84 87 88 89 88
18 23 24 27 30 30 31 29 27 26 27 30 30 34 32 33 37 36 39 43 47 50 53 56 59 62 63 64 67 72 74 77 80 82 84 85 86 87 89 91 94 97 99
17 17 20 24 27 27 28 30 30 32 31 31 34 35 35 37 42 46 48 47 48 53 56 59 64 66 67 70 72 75 78 81 82 85 88 91 92 94 96 94 93 92 93
24 23 26 26 26 29 31 32 35 37 38 39 41 45 47 48 50 52 52 54 59 62 63 64 67 70 72 75 78 80 82 85 87 90 91 93 92 92 89 88 92 91 89
24 25 26 28 29 27 27 28 29 31 34 37 39 39 41 46 52 58 64 66 69 68 69 72 75 77 77 78 81 83 85 87 88 91 91 92 94 94 95 94 94 93 96
24 24 26 25 26 30 31 33 35 36 38 39 38 39 39 41 45 47 52 59 64 69 74 77 76 79 80 82 83 84 84 84 86 87 89 91 93 96 94 97 96 96 96
33 35 36 37 39 42 43 44 45 46 45 46 47 48 49 51 53 55 54 53 53 55 58 63 68 72 75 79 81 81 81 82 83 85 88 89 90 92 96 96 97 98 100
45 45 46 48 50 51 52 52 51 52 54 56 57 57 58 60 61 62 60 58 56 56 58 60 64 67 70 73 76 79 81 84 87 88 90 93 95 98 102 103 105 105 105
55 54 53 52 54 56 58 59 58 60 61 61 62 63 65 66 67 66 64 61 61 61 62 62 64 66 69 71 73 78 79 81 84 88 91 95 99 105 110 115 118 119 119
61 60 60 61 63 64 65 65 65 66 67 65 67 70 71 70 67 68 65 64 64 66 65 65 65 67 69 71 75 78 81 86 91 94 95 96 96 97 100 102 105 107 111
66 67 67 68 69 70 69 69 69 71 72 73 74 74 72 70 71 70 67 66 67 67 66 66 67 70 73 76 79 82 85 89 93 93 94 97 99 100 100 101 102 105 107
70 71 71 72 72 73 75 75 76 77 79 78 76 74 74 73 72 70 68 68 69 68 69 70 73 76 79 82 81 83 86 90 95 97 98 99 99 100 101 103 103 104 106
76 76 76 76 77 77 78 79 79 79 79 75 75 74 74 74 72 70 71 72 71 71 72 74 78 81 86 90 90 92 94 98 100 99 100 103 104 103 101 97 95 93 92
76 76 76 78 79 80 78 76 75 74 76 75 77 75 73 71 71 72 75 75 75 78 80 82 83 85 89 94 97 99 97 99 101 100 97 90 86 84 81 79 77 75 75
79 79 78 78 78 79 77 75 74 72 72 71 70 70 72 72 74 73 74 76 79 84 87 90 92 94 95 96 96 97 96 91 84 80 77 74 72 71 69 67 66 65 63
69 71 74 75 73 70 69 69 67 68 68 69 70 70 71 73 74 75 78 81 87 91 93 96 97 97 97 96 95 86 78 75 72 69 67 64 63 61 58 55 52 51 50
64 60 59 62 63 64 63 64 63 64 67 67 70 72 74 76 79 82 85 89 93 95 96 97 97 97 96 85 76 72 67 64 61 58 56 53 52 51 49 47 44 42 41
55 56 57 59 61 60 60 60 62 64 65 69 72 75 77 81 84 88 92 94 95 96 96 97 96 87 77 72 66 61 57 53 51 49 47 46 46 46 44 41 39 37 36
49 51 51 53 55 59 60 62 65 68 72 75 76 80 84 87 91 93 93 94 95 96 95 87 78 71 66 61 57 54 52 49 46 43 42 42 42 40 38 35 33 31 30

GFSGL_250_spd_012.txt.gz
Wind_Speed
27 30 27 18 17 17 15 14 12 12 11 8 11 15 22 27 31 45 53 52 47 43 44 43 43 45 44 47 44 47 48 45 46 48 49 47 47 48 48 51 52 52 55
25 29 25 22 18 17 14 9 12 13 12 12 2 5 12 21 23 37 48 49 49 46 45 46 47 47 44 45 49 50 51 51 52 52 52 53 54 52 55 59 61 61 63
27 27 23 19 21 21 14 9 11 13 14 12 8 7 10 11 17 28 35 42 46 47 48 48 48 47 42 47 50 51 55 55 56 57 56 57 58 58 60 63 66 67 66
28 25 22 20 19 22 18 15 14 12 12 13 12 10 7 12 14 26 36 39 43 44 49 51 51 50 51 49 52 53 56 58 59 61 60 59 62 65 68 68 69 70 68
27 28 24 22 19 16 13 9 8 8 9 11 12 9 10 10 13 22 33 38 42 46 46 50 52 54 56 56 58 61 63 63 64 59 60 64 67 71 72 72 73 74 72
26 29 28 22 20 15 13 14 13 16 14 13 12 11 16 16 15 17 26 37 43 45 49 55 57 58 58 59 62 62 64 64 64 66 67 70 72 72 74 78 79 80 82
24 25 24 27 26 33 29 26 25 22 23 19 21 23 21 21 22 24 23 28 38 45 49 55 57 60 61 62 64 66 68 70 73 76 79 80 78 74 72 74 78 81 84
23 22 23 26 24 30 32 32 29 29 28 21 22 24 25 26 27 27 29 33 35 39 49 57 60 62 62 64 67 70 74 75 75 74 76 76 77 77 80 82 84 87 91
21 19 16 18 20 18 22 26 26 28 28 25 27 27 26 27 27 28 32 37 40 42 45 49 54 57 60 63 66 68 70 72 73 74 75 77 80 84 86 88 90 90 92
20 19 17 16 20 23 24 24 25 26 28 30 32 33 33 34 35 36 38 40 44 47 52 55 56 59 62 65 69 72 75 76 78 79 81 85 89 89 88 90 93 96 99
21 21 24 27 26 26 26 25 25 26 28 29 31 32 33 34 35 38 39 39 41 45 50 58 63 69 71 74 76 77 78 80 82 82 85 88 89 90 92 94 96 98 101
27 24 25 27 29 29 29 27 26 29 30 32 34 35 38 39 41 40 40 42 44 46 48 50 54 60 70 76 80 87 90 91 93 93 93 94 94 95 96 98 98 99 99
37 35 32 29 30 31 32 33 38 40 42 43 43 45 46 45 47 49 49 50 51 53 56 57 59 59 63 68 71 75 78 84 87 89 91 91 92 94 94 93 94 97 98
47 46 44 42 42 42 43 45 48 51 51 51 51 51 52 55 55 56 58 57 58 60 63 64 63 64 64 65 66 67 70 74 78 81 83 85 88 90 92 95 96 99 100
57 57 56 55 54 54 55 56 56 55 56 59 60 61 61 62 62 62 62 64 67 69 70 68 68 70 66 64 65 68 70 72 75 78 81 84 86 89 91 94 96 99 101
63 64 64 64 63 63 61 62 62 62 63 65 66 67 67 66 66 69 71 72 73 74 72 72 72 71 68 67 69 71 73 74 75 78 81 83 86 90 92 95 98 101 104
67 67 68 68 67 65 66 67 68 68 70 71 71 72 73 74 74 75 75 75 76 74 74 74 73 72 70 71 73 75 75 76 77 79 82 86 91 94 98 101 103 106 110
71 70 72 72 71 71 70 71 71 72 74 75 76 76 76 76 77 78 77 75 74 74 75 73 74 72 73 73 74 76 78 81 84 86 88 90 92 95 97 99 101 104 107
77 75 75 76 74 73 74 76 79 79 78 78 77 77 77 78 78 77 77 76 75 75 74 74 73 75 75 74 76 80 84 88 89 90 93 95 96 98 98 98 98 98 98
78 76 77 72 73 78 81 79 77 78 77 76 78 77 78 79 78 75 73 73 73 72 73 74 76 78 80 82 84 88 93 94 94 95 96 96 96 95 94 92 89 86 84
73 70 74 80 81 73 71 76 78 77 76 75 75 76 76 73 71 70 70 72 72 72 72 74 77 80 86 90 93 96 97 97 97 97 96 94 89 83 81 80 77 74 73
76 81 78 75 74 75 78 75 74 73 71 72 70 68 67 67 69 70 71 72 73 75 77 78 81 86 90 94 96 96 98 98 94 87 80 76 74 71 69 67 65 63 61
75 72 73 72 76 77 72 69 68 68 66 64 63 63 64 65 66 68 71 74 77 78 81 85 89 94 95 95 95 95 90 80 74 72 67 64 63 61 59 57 55 52 50
65 63 61 61 61 60 61 59 56 55 54 57 59 60 62 65 68 71 73 76 80 84 89 93 95 95 94 94 89 79 74 67 63 61 58 56 55 53 51 49 47 47 45
60 57 52 52 53 53 52 51 52 54 57 59 60 63 66 70 72 75 77 81 86 90 94 95 92 93 92 81 72 66 63 60 57 54 51 48 46 44 43 43 43 41 38
57 53 49 47 45 47 50 52 54 56 58 61 65 69 72 75 78 81 84 87 92 93 92 93 92 88 75 68 62 57 54 52 50 47 45 42 39 38 37 38 39 37 34